{"data":{"norad_id":64515,"intl_designator":"2025-134R","name":"KUIPER-00055","alt_names":[],"object_type":"PAYLOAD","status":"ACTIVE","operator":null,"country":"US","launch_date":"2025-06-23","launch_site_code":"AFETR","launch_vehicle":null,"mission":null,"orbit_class":"UNKNOWN","rcs_meters":null,"size_class":null,"mass_kg":null,"dimensions":null,"purposes":[],"wikipedia_slug":null,"has_3d_model":false,"image_url":null,"decayed_at":null,"tle_current":{"epoch":"2026-09-21T16:52:17.763168Z","epoch_age_seconds":77911,"freshness":"FRESH","line1":"1 64515U 25134R   26264.70298337 -.00004058  00000+0 -50361-3 0  9991","line2":"2 64515  51.9035  23.9165 0000254 151.2832 208.8144 14.79935521 69979","mean_motion":14.79935521,"eccentricity":2.54e-5,"inclination_deg":51.9035,"raan_deg":23.9165,"arg_perigee_deg":151.2832,"mean_anomaly_deg":208.8144,"bstar":-0.00050361,"rev_number":6997,"period_min":97.301536422816,"perigee_km":629.34967633135,"apogee_km":629.70566569664,"semimajor_km":7007.664671014,"source":"CELESTRAK","updated_at":"2026-09-22T09:00:29.810323Z"}}}